| time (UTC) | temp F | wind direction | speed MPH | gust MPH | rain 1hr in | rain 24hr in | rain mn in | humidity % | barometer mb |
| 20260510031803 | 68 | 53 | 2.0 | 3.0 | 0.00 | 0.00 | 0.00 | 59 | 1012.5 |
| 20260510030804 | 69 | 75 | 1.0 | 3.0 | 0.00 | 0.00 | 0.00 | 57 | 1012.4 |
| 20260510025804 | 70 | 342 | 0.0 | 2.0 | 0.00 | 0.00 | 0.00 | 54 | 1012.1 |
| 20260510025306 | 71 | 46 | 0.0 | 3.0 | 0.00 | 0.00 | 0.00 | 53 | 1011.8 |
| 20260510024804 | 71 | 54 | 2.0 | 6.0 | 0.00 | 0.00 | 0.00 | 52 | 1011.7 |
| 20260510024303 | 72 | 27 | 2.0 | 6.0 | 0.00 | 0.00 | 0.00 | 50 | 1011.5 |
| 20260510023803 | 72 | 44 | 2.0 | 6.0 | 0.00 | 0.00 | 0.00 | 50 | 1011.4 |
| 20260510023304 | 72 | 42 | 4.0 | 7.0 | 0.00 | 0.00 | 0.00 | 49 | 1011.3 |
| 20260510022306 | 72 | 2 | 4.0 | 9.0 | 0.00 | 0.00 | 0.00 | 48 | 1011.0 |
| 20260510021303 | 70 | 42 | 6.0 | 15.0 | 0.00 | 0.00 | 0.00 | 51 | 1010.8 |
| 20260510020804 | 71 | 33 | 2.0 | 7.0 | 0.00 | 0.00 | 0.00 | 55 | 1010.6 |
| 20260510020304 | 71 | 13 | 1.0 | 3.0 | 0.00 | 0.00 | 0.00 | 52 | 1010.2 |
| 20260510015804 | 71 | 311 | 0.0 | 0.0 | 0.00 | 0.00 | 0.00 | 52 | 1010.1 |
| 20260510015306 | 72 | 311 | 0.0 | 3.0 | 0.00 | 0.00 | 0.00 | 53 | 1010.0 |
| 20260510014803 | 72 | 244 | 2.0 | 5.0 | 0.00 | 0.00 | 0.00 | 50 | 1009.8 |
| 20260510014304 | 72 | 215 | 3.0 | 7.0 | 0.00 | 0.00 | 0.00 | 49 | 1009.6 |
| 20260510013804 | 71 | 187 | 3.0 | 7.0 | 0.00 | 0.00 | 0.00 | 52 | 1009.5 |
| 20260510013303 | 71 | 198 | 1.0 | 5.0 | 0.00 | 0.00 | 0.00 | 54 | 1009.5 |
| 20260510012803 | 71 | 43 | 2.0 | 3.0 | 0.00 | 0.00 | 0.00 | 58 | 1009.5 |
| 20260510011804 | 72 | 246 | 1.0 | 2.0 | 0.00 | 0.00 | 0.00 | 54 | 1009.4 |
| 20260510011303 | 73 | 299 | 0.0 | 2.0 | 0.00 | 0.00 | 0.00 | 53 | 1009.3 |
| 20260510010804 | 74 | 79 | 2.0 | 3.0 | 0.00 | 0.00 | 0.00 | 54 | 1009.2 |
| 20260510005804 | 75 | 55 | 1.0 | 2.0 | 0.00 | 0.00 | 0.00 | 52 | 1009.1 |
| 20260510005306 | 76 | 53 | 2.0 | 2.0 | 0.00 | 0.00 | 0.00 | 50 | 1008.9 |
| 20260510004803 | 76 | 46 | 2.0 | 3.0 | 0.00 | 0.00 | 0.00 | 47 | 1008.8 |
| 20260510004304 | 77 | 30 | 0.0 | 2.0 | 0.00 | 0.00 | 0.00 | 46 | 1008.8 |
| 20260510003803 | 78 | 36 | 1.0 | 2.0 | 0.00 | 0.00 | 0.00 | 43 | 1008.8 |
| 20260510003303 | 78 | 35 | 1.0 | 2.0 | 0.00 | 0.00 | 0.00 | 46 | 1008.7 |
| 20260510002306 | 79 | 16 | 0.0 | 1.0 | 0.00 | 0.00 | 0.00 | 37 | 1008.6 |
| 20260510001804 | 80 | 67 | 1.0 | 2.0 | 0.00 | 0.00 | 0.00 | 37 | 1008.5 |
| 20260510001304 | 81 | 28 | 0.0 | 0.0 | 0.00 | 0.00 | 0.00 | 40 | 1008.6 |
| 20260510000804 | 81 | 28 | 0.0 | 0.0 | 0.00 | 0.00 | 0.00 | 41 | 1008.6 |
| 20260509235804 | 82 | 28 | 0.0 | 0.0 | 0.00 | 0.00 | 0.00 | 36 | 1008.6 |
| 20260509235306 | 83 | 28 | 0.0 | 1.0 | 0.00 | 0.00 | 0.00 | 34 | 1008.6 |
| 20260509234804 | 84 | 13 | 0.0 | 1.0 | 0.00 | 0.00 | 0.00 | 35 | 1008.5 |
| 20260509234303 | 85 | 338 | 0.0 | 2.0 | 0.00 | 0.00 | 0.00 | 31 | 1008.5 |
| 20260509233804 | 86 | 19 | 1.0 | 2.0 | 0.00 | 0.00 | 0.00 | 31 | 1008.5 |
| 20260509233304 | 87 | 3 | 1.0 | 2.0 | 0.00 | 0.00 | 0.00 | 29 | 1008.5 |
| 20260509232803 | 86 | 355 | 2.0 | 5.0 | 0.00 | 0.00 | 0.00 | 29 | 1008.5 |
| 20260509232306 | 86 | 341 | 1.0 | 3.0 | 0.00 | 0.00 | 0.00 | 30 | 1008.5 |
| 20260509231304 | 85 | 313 | 1.0 | 6.0 | 0.00 | 0.00 | 0.00 | 29 | 1008.4 |
| 20260509230804 | 84 | 271 | 2.0 | 6.0 | 0.00 | 0.00 | 0.00 | 31 | 1008.4 |
| 20260509230303 | 84 | 291 | 2.0 | 6.0 | 0.00 | 0.00 | 0.00 | 31 | 1008.4 |
| 20260509225804 | 84 | 310 | 3.0 | 7.0 | 0.00 | 0.00 | 0.00 | 31 | 1008.4 |
| 20260509225306 | 83 | 319 | 2.0 | 5.0 | 0.00 | 0.00 | 0.00 | 33 | 1008.4 |
| 20260509224804 | 82 | 274 | 3.0 | 6.0 | 0.00 | 0.00 | 0.00 | 31 | 1008.3 |
| 20260509223804 | 82 | 277 | 5.0 | 8.0 | 0.00 | 0.00 | 0.00 | 30 | 1008.3 |
| 20260509223304 | 82 | 269 | 5.0 | 8.0 | 0.00 | 0.00 | 0.00 | 31 | 1008.3 |
| 20260509222803 | 82 | 266 | 5.0 | 9.0 | 0.00 | 0.00 | 0.00 | 32 | 1008.3 |
| 20260509222307 | 83 | 257 | 6.0 | 10.0 | 0.00 | 0.00 | 0.00 | 30 | 1008.2 |
| 20260509221803 | 83 | 268 | 7.0 | 12.0 | 0.00 | 0.00 | 0.00 | 31 | 1008.3 |
| 20260509221304 | 83 | 257 | 7.0 | 9.0 | 0.00 | 0.00 | 0.00 | 29 | 1008.3 |
| 20260509220303 | 83 | 300 | 6.0 | 10.0 | 0.00 | 0.00 | 0.00 | 32 | 1008.3 |
| 20260509215803 | 82 | 262 | 8.0 | 10.0 | 0.00 | 0.00 | 0.00 | 32 | 1008.2 |
| 20260509215306 | 82 | 232 | 7.0 | 10.0 | 0.00 | 0.00 | 0.00 | 33 | 1008.2 |
| 20260509214304 | 82 | 247 | 7.0 | 10.0 | 0.00 | 0.00 | 0.00 | 34 | 1008.3 |
| 20260509213304 | 83 | 237 | 6.0 | 10.0 | 0.00 | 0.00 | 0.00 | 33 | 1008.3 |
| 20260509212803 | 83 | 230 | 9.0 | 12.0 | 0.00 | 0.00 | 0.00 | 31 | 1008.3 |
| 20260509212306 | 82 | 275 | 7.0 | 9.0 | 0.00 | 0.00 | 0.00 | 32 | 1008.3 |
| 20260509211803 | 82 | 274 | 4.0 | 7.0 | 0.00 | 0.00 | 0.00 | 31 | 1008.3 |
| 20260509211304 | 82 | 259 | 7.0 | 9.0 | 0.00 | 0.00 | 0.00 | 30 | 1008.3 |
| 20260509210803 | 83 | 273 | 9.0 | 13.0 | 0.00 | 0.00 | 0.00 | 30 | 1008.4 |
| 20260509205803 | 83 | 267 | 9.0 | 14.0 | 0.00 | 0.00 | 0.00 | 31 | 1008.5 |
| 20260509205307 | 82 | 252 | 6.0 | 9.0 | 0.00 | 0.00 | 0.00 | 32 | 1008.6 |
| 20260509204804 | 82 | 256 | 8.0 | 12.0 | 0.00 | 0.00 | 0.00 | 32 | 1008.6 |
| 20260509204303 | 83 | 267 | 9.0 | 12.0 | 0.00 | 0.00 | 0.00 | 30 | 1008.6 |
| 20260509203804 | 82 | 288 | 5.0 | 9.0 | 0.00 | 0.00 | 0.00 | 32 | 1008.7 |
| 20260509203304 | 82 | 243 | 6.0 | 9.0 | 0.00 | 0.00 | 0.00 | 33 | 1008.7 |
| 20260509202803 | 83 | 264 | 6.0 | 12.0 | 0.00 | 0.00 | 0.00 | 30 | 1008.7 |
| 20260509202306 | 84 | 273 | 7.0 | 13.0 | 0.00 | 0.00 | 0.00 | 29 | 1008.8 |
| 20260509201804 | 83 | 266 | 6.0 | 13.0 | 0.00 | 0.00 | 0.00 | 31 | 1008.8 |
| 20260509201303 | 83 | 259 | 9.0 | 14.0 | 0.00 | 0.00 | 0.00 | 31 | 1008.9 |
| 20260509200804 | 83 | 262 | 9.0 | 13.0 | 0.00 | 0.00 | 0.00 | 32 | 1008.9 |
| 20260509200304 | 83 | 272 | 7.0 | 12.0 | 0.00 | 0.00 | 0.00 | 29 | 1009.0 |
| 20260509195306 | 83 | 305 | 5.0 | 9.0 | 0.00 | 0.00 | 0.00 | 33 | 1009.1 |
| 20260509194804 | 83 | 254 | 8.0 | 12.0 | 0.00 | 0.00 | 0.00 | 31 | 1009.1 |
| 20260509194303 | 83 | 263 | 10.0 | 14.0 | 0.00 | 0.00 | 0.00 | 32 | 1009.2 |
| 20260509193804 | 83 | 251 | 10.0 | 14.0 | 0.00 | 0.00 | 0.00 | 31 | 1009.2 |
| 20260509192306 | 83 | 291 | 8.0 | 14.0 | 0.00 | 0.00 | 0.00 | 35 | 1009.3 |
| 20260509190304 | 82 | 278 | 7.0 | 12.0 | 0.00 | 0.00 | 0.00 | 34 | 1009.4 |
| 20260509185306 | 82 | 257 | 9.0 | 15.0 | 0.00 | 0.00 | 0.00 | 35 | 1009.5 |
| 20260509184804 | 82 | 267 | 7.0 | 12.0 | 0.00 | 0.00 | 0.00 | 37 | 1009.5 |
| 20260509184303 | 81 | 275 | 7.0 | 13.0 | 0.00 | 0.00 | 0.00 | 35 | 1009.5 |
| 20260509183804 | 81 | 273 | 10.0 | 15.0 | 0.00 | 0.00 | 0.00 | 35 | 1009.5 |
| 20260509181804 | 81 | 262 | 10.0 | 14.0 | 0.00 | 0.00 | 0.00 | 36 | 1009.7 |
| 20260509181303 | 80 | 275 | 9.0 | 14.0 | 0.00 | 0.00 | 0.00 | 39 | 1009.9 |
| 20260509180804 | 80 | 253 | 10.0 | 15.0 | 0.00 | 0.00 | 0.00 | 38 | 1009.9 |
| 20260509180303 | 80 | 283 | 7.0 | 14.0 | 0.00 | 0.00 | 0.00 | 38 | 1009.9 |